Regional Weather Roundup
Issued by NWS Bismarck, ND

Home | Current Version | Previous Version | Text Only | Print | Product List | Glossary On
Versions: 1 2 3 4 5 6 7 8 9 10 11 12 13 14 15 16 17 18 19 20 21 22 23 24 25 26 27 28 29 30 31 32 33 34 35 36 37 38 39 40 41 42 43 44 45 46 47 48 49 50
000
ASUS43 KBIS 191910
RWRBIS

NWR BROADCAST TEXT
NATIONAL WEATHER SERVICE BISMARCK ND
200 PM CDT THU APR 19 2018

NOTE: "FAIR" INDICATES FEW OR NO CLOUDS BELOW 12,000 FEET WITH NO
SIGNIFICANT WEATHER AND/OR OBSTRUCTIONS TO VISIBILITY.


CITY           SKY/WX    TMP DP  RH WIND       PRES   REMARKS
WILLISTON      MOSUNNY   50  37  61 E9        30.36F
MINOT          CLOUDY    44  33  65 CALM      30.40F
MINOT AFB      CLOUDY    43  34  71 W3        30.39F
BISMARCK       MOSUNNY   52  32  46 E7        30.39F
DICKINSON      SUNNY     54  28  36 VRB6      30.30F
GARRISON         N/A     44  34  67 NE5       30.39F
HETTINGER ARPT SUNNY     54  29  38 SE10      30.32F
JAMESTOWN      SUNNY     54  31  41 N7        30.39F
CARRINGTON     FAIR      50  37  62 N7        30.42F
HAZEN          FAIR      50  36  57 VRB5      30.39F
LINTON           N/A    N/A N/A N/A SE8       30.40F
MANDAN         FAIR      50  32  50 E5        30.38F
OAKES            N/A     50  28  43 CALM      30.42F
RUGBY          MOCLDY    45  36  70 VRB5      30.40F
STANLEY          N/A     37  37 100 VRB5      30.40F FOG
TIOGA          MOCLDY    43  43 100 E5        30.38F
WATFORD CITY   FAIR      50  36  57 SE8       30.35F
$$

CITY           SKY/WX    TMP DP  RH WIND       PRES   REMARKS
GRAND FORKS    FAIR      54  29  38 CALM      30.40F
GRAND FORKS AF FAIR      56  31  38 SW9       30.40F
DEVILS LAKE    FAIR      49  33  54 SW8       30.41F
FARGO          FAIR      54  26  34 W10       30.42F
CANDO          MOCLDY    52  36  54 W7G13     30.41F
CAVALIER         N/A     55  30  38 CALM      30.39F
GRAFTON        FAIR      57  25  28 CALM      30.41F
GWINNER          N/A     54  34  47 W6        30.42F
LANGDON        CLOUDY    54  32  43 S5        30.39F
ROLLA          FAIR      46  39  76 S10       30.38F
WALHALLA       FAIR      54  28  37 VRB3      30.39F
$$

CITY           SKY/WX    TMP DP  RH WIND       PRES   REMARKS
ABERDEEN       SUNNY     55  31  39 SW8       30.42F
MOBRIDGE       SUNNY     53  27  36 S10       30.36F
BUFFALO          N/A     56  27  32 SE17G24   30.20F
RAPID CITY     MOSUNNY   56  30  37 S17G26    30.27F
GLASGOW        MOSUNNY   51  38  60 E20       30.25F
SIDNEY         MOSUNNY   55  35  47 SE8       30.32F
WOLF POINT     MOSUNNY   52  39  61 E16       30.30F
GLENDIVE       MOSUNNY   58  31  35 E10       30.27F
MILES CITY     SUNNY     60  30  32 SE18G26   30.18F
BAKER          SUNNY     57  30  35 SE16G24   30.26F
$$

CITY           SKY/WX    TMP DP  RH WIND       PRES   REMARKS
BILLINGS       MOSUNNY   57  29  34 SE6       30.09F
GREAT FALLS    MOSUNNY   51  27  39 MISG      30.11F
REGINA         MOSUNNY   37  34  87 SE14      30.37F
ESTEVAN        MOSUNNY   48  32  53 SE8       30.38F
$$





USA.gov is the U.S. government's official web portal to all federal, state and local government web resources and services.